RH
27 29 29 28 28 28 31 32 33 34 35 37 37 37 38 40 44 45 46 46 46 46 48 49 50 51 52 53 55 56 58 61 65 73 82 89 93 93 91 88 84 81 78 77 77 79 81 81 81 80 81 77 70 71 74 75 75 70 67 66 61 56 52 48 48 52 53 50 50 47 42 42 46 49 50 48 49 50 50 50 50 54 58 60 61
36 39 38 37 36 33 33 33 33 37 40 43 44 43 43 43 45 46 47 47 46 45 44 44 45 45 47 48 50 52 53 54 54 55 63 74 85 92 95 93 91 88 85 81 77 77 78 80 83 82 81 79 71 71 74 75 76 73 71 68 58 49 49 52 51 50 49 47 50 55 51 46 46 49 50 47 45 46 48 51 55 58 63 67 68
47 47 47 46 44 42 40 37 38 43 45 48 49 47 46 44 44 43 43 42 42 43 41 39 37 37 38 39 41 45 47 50 51 50 49 54 65 78 89 93 96 97 95 92 88 83 80 80 82 83 83 81 74 71 74 75 75 74 70 67 60 52 51 53 48 44 46 51 59 59 51 47 49 48 47 47 45 46 50 54 58 62 67 71 74
62 59 67 68 55 48 46 41 42 45 45 46 44 41 39 36 34 33 32 32 32 32 31 31 32 30 29 30 31 35 38 43 48 51 50 48 48 55 69 82 90 98 100 99 97 95 91 88 86 84 84 83 77 72 73 75 75 74 71 69 65 56 52 51 47 44 45 51 56 55 52 53 50 44 45 50 50 51 54 57 59 65 71 73 75
73 68 76 74 56 46 45 42 42 42 40 39 37 34 29 25 25 25 25 27 27 26 25 24 26 30 27 23 24 26 29 32 38 47 53 53 48 43 48 61 74 86 95 100 100 100 98 97 94 91 88 85 80 74 72 74 75 74 71 69 66 58 56 55 51 48 46 48 52 56 57 53 47 48 52 53 51 52 57 60 60 63 72 77 77
71 66 66 59 46 40 40 38 37 34 28 24 22 20 20 20 18 19 25 31 26 22 27 29 32 40 36 26 21 21 23 26 27 34 46 56 58 53 44 43 54 69 82 92 98 100 100 100 99 97 95 92 86 79 73 73 75 74 72 70 68 64 63 63 56 52 50 50 54 59 58 54 57 64 61 53 49 52 56 59 60 64 71 78 82
66 64 61 52 44 38 36 33 31 29 25 23 20 14 17 20 24 39 59 62 42 30 42 50 51 55 53 43 33 25 22 22 22 24 32 44 56 63 59 47 43 53 67 81 90 96 98 99 100 100 99 97 95 89 81 77 77 75 74 73 72 69 68 65 58 53 52 51 53 59 59 56 59 62 60 54 51 50 53 55 56 62 69 74 81
66 62 54 46 39 31 26 22 21 20 19 29 33 21 21 29 39 65 91 96 81 70 74 73 69 72 68 60 55 51 41 28 24 24 24 31 43 55 66 65 54 48 54 67 79 88 93 95 97 99 100 100 99 97 93 90 87 84 80 77 75 72 70 67 60 53 48 49 54 59 58 53 54 60 63 62 60 56 51 51 51 54 61 65 74
60 48 40 39 35 29 27 23 24 28 25 40 48 31 29 43 53 67 82 94 99 97 89 75 72 77 73 64 63 70 70 52 39 35 30 30 35 44 55 66 67 60 54 58 68 78 87 92 92 93 96 97 99 100 100 98 98 96 90 84 79 75 72 71 67 57 50 54 60 62 61 57 53 58 64 65 65 61 49 44 47 49 52 55 63
40 31 34 45 44 39 36 30 45 65 60 58 57 42 42 52 58 64 71 85 98 96 88 80 77 74 70 68 66 69 76 75 63 50 44 41 39 41 46 55 63 66 61 58 62 69 78 86 91 92 92 91 91 95 99 99 99 101 99 95 91 86 82 80 75 68 59 58 61 62 60 57 51 52 58 60 61 61 54 47 47 48 49 52 59
26 29 42 55 53 42 32 26 47 70 66 57 51 48 60 68 68 72 77 86 92 87 82 85 88 81 76 76 71 66 69 80 81 65 56 53 48 44 44 47 52 57 59 58 60 65 69 76 85 94 98 94 89 86 88 93 95 98 100 100 98 96 95 91 85 80 71 59 56 57 56 53 51 52 54 59 62 62 59 54 50 48 50 54 59
25 32 46 56 56 52 45 45 62 70 67 69 64 61 78 88 87 85 82 81 81 80 79 84 87 87 87 84 77 73 70 77 84 78 70 66 60 53 48 47 47 48 52 52 54 61 66 70 75 86 97 100 98 91 85 84 86 91 95 98 99 98 99 99 94 89 83 69 54 50 53 54 55 55 58 63 65 64 61 59 56 51 51 54 57
24 36 50 55 60 69 73 76 85 85 81 84 80 76 86 97 98 91 83 78 76 80 85 89 91 92 96 94 88 85 82 83 86 86 86 83 78 72 62 53 47 45 48 48 48 53 58 64 68 76 89 98 101 99 95 90 84 82 85 90 96 98 99 100 99 96 94 86 67 50 50 58 63 63 65 66 66 67 63 60 58 52 52 57 59
29 44 54 63 72 83 89 89 92 95 94 93 89 86 87 95 98 89 83 85 85 88 92 95 98 99 100 99 97 95 93 92 92 93 97 96 94 91 82 68 53 44 46 45 43 43 46 51 56 63 78 93 100 100 99 99 95 89 83 81 85 93 99 100 100 99 99 98 86 64 50 57 69 72 72 70 67 67 61 56 58 56 57 63 61
43 53 63 78 87 90 92 92 92 96 98 96 95 95 95 99 97 83 79 91 97 97 98 99 100 100 101 100 100 100 96 95 96 98 100 99 98 98 95 85 66 51 48 45 41 39 38 39 42 46 58 78 94 100 100 100 100 98 93 87 81 83 91 97 100 100 99 100 98 86 68 59 63 68 75 73 65 63 60 57 62 64 65 67 63
50 59 75 88 91 91 90 90 91 93 95 95 98 101 99 101 96 80 76 90 101 102 100 99 97 98 101 101 100 100 99 98 97 97 98 99 100 99 98 94 79 62 53 49 43 37 34 33 33 35 40 54 71 87 97 100 100 100 99 96 91 85 84 89 96 100 100 100 99 99 92 79 66 61 71 76 66 62 60 56 62 65 66 72 71
53 64 80 87 91 94 91 90 94 96 97 98 100 100 100 101 95 82 82 92 99 100 100 100 97 95 98 99 98 99 101 97 94 96 97 97 99 99 98 96 85 68 56 50 47 42 37 34 32 31 31 36 46 61 76 88 96 100 101 100 98 94 90 86 89 94 97 100 100 100 99 96 83 66 67 73 65 59 58 54 57 59 64 78 78
59 70 79 83 91 93 89 94 100 99 99 100 100 99 100 100 91 87 93 98 98 94 90 95 98 97 97 98 97 98 101 98 93 95 96 95 97 98 99 98 88 73 59 49 46 47 45 42 40 39 35 32 33 39 50 62 74 84 94 100 100 99 97 91 89 90 92 96 99 100 99 100 95 81 72 69 59 54 55 53 55 57 62 74 78
64 72 81 87 92 89 89 97 100 98 99 100 99 97 94 91 87 92 101 100 100 97 86 87 99 103 100 99 99 98 99 99 97 97 95 95 98 97 96 97 91 79 66 52 46 47 49 49 48 47 45 42 37 34 36 42 50 59 70 84 95 100 101 97 93 91 91 92 94 96 95 93 90 82 72 64 55 51 53 54 56 57 57 65 76
64 72 82 89 90 88 91 98 100 100 100 99 99 97 95 94 93 97 101 99 100 102 93 87 94 102 102 100 101 100 98 99 99 98 97 97 98 96 92 91 88 82 72 60 53 51 52 53 53 50 49 47 45 41 38 38 40 44 49 58 71 84 94 99 99 97 92 90 91 91 88 83 78 73 67 61 57 55 56 57 59 59 57 61 72
69 75 80 85 88 89 91 97 100 99 96 96 99 97 94 97 100 99 100 100 99 100 99 93 90 96 101 100 99 100 99 100 100 99 99 99 98 97 95 92 89 85 79 70 63 58 56 56 56 54 51 48 46 43 42 41 39 40 42 44 49 56 67 80 92 100 98 92 89 88 88 84 78 72 68 67 64 62 62 60 60 62 58 56 68
72 76 79 84 88 91 94 98 100 97 94 98 101 98 94 96 100 101 101 103 102 100 100 99 95 96 99 100 100 100 99 99 100 101 100 99 99 99 98 98 95 94 91 86 80 74 68 63 60 57 53 50 47 43 40 39 37 38 39 40 42 43 46 52 62 79 92 97 95 93 91 89 85 79 73 72 71 68 66 64 62 63 59 58 73
71 77 83 85 87 92 95 93 90 89 93 99 101 100 100 99 98 99 101 102 101 101 101 101 101 99 99 100 100 98 99 100 99 100 100 100 101 100 99 99 98 97 98 97 95 92 87 80 72 65 58 52 49 46 41 36 32 32 34 35 37 38 40 42 43 49 62 78 92 100 100 96 92 87 81 76 74 72 69 66 65 65 63 69 82
79 86 89 87 88 94 93 86 85 89 91 93 97 99 100 101 100 98 98 99 98 97 96 97 98 97 95 98 100 98 97 99 100 100 100 100 100 100 100 101 101 98 99 99 99 100 99 95 85 73 63 55 48 45 41 35 30 28 28 29 32 33 34 37 39 40 42 48 61 79 95 101 99 95 91 84 77 74 72 67 65 66 68 78 89
90 96 96 92 93 94 90 85 89 97 98 94 95 99 99 101 103 101 99 99 97 94 92 91 91 91 88 90 96 98 95 96 99 99 98 98 100 101 101 102 101 97 96 98 99 100 100 101 94 79 65 57 51 46 40 34 30 28 26 26 29 31 33 33 34 37 39 40 41 48 66 89 101 101 97 94 86 78 76 72 66 66 73 85 95
94 100 99 95 93 93 95 96 94 96 101 99 96 98 100 99 98 100 102 102 100 99 96 92 91 92 90 85 86 91 94 95 95 94 93 95 100 102 100 98 97 95 95 96 98 99 99 99 94 79 65 57 50 45 40 35 32 30 27 26 27 30 33 34 35 35 37 40 39 37 41 59 87 102 100 98 96 87 80 77 70 68 80 92 99
99 101 98 97 96 96 99 102 99 97 99 101 100 101 103 100 96 95 98 99 100 102 101 98 97 98 96 92 88 86 87 89 89 87 87 90 96 98 97 96 94 94 97 97 98 101 100 96 87 74 66 59 48 42 41 38 34 31 28 26 27 32 36 36 37 38 39 40 40 38 35 37 60 92 102 99 100 96 85 78 77 80 90 98 100
100 96 97 100 100 99 99 100 100 99 97 97 100 99 98 99 97 95 94 93 91 90 91 94 98 101 100 99 98 91 85 83 84 84 85 87 90 92 94 95 92 91 94 95 96 99 100 95 83 72 68 63 52 45 44 43 42 42 41 38 37 42 45 45 46 45 43 44 42 39 37 32 38 69 98 101 98 100 92 81 84 93 97 99 101
100 97 99 102 101 99 101 101 99 99 98 96 95 93 93 93 93 92 91 91 86 77 74 79 89 99 101 100 101 100 94 88 85 84 85 86 86 88 89 89 87 86 87 90 92 94 97 97 87 75 69 65 57 50 50 53 56 60 62 61 59 58 56 53 55 54 51 50 48 41 38 34 29 47 84 101 99 100 97 89 91 99 100 99 101
101 101 99 101 102 100 101 102 100 98 98 95 91 90 88 85 85 85 82 82 81 72 67 72 81 92 99 99 100 100 99 96 93 90 88 86 86 86 85 83 81 80 81 84 87 87 88 93 93 84 72 63 54 51 57 63 68 74 78 76 75 75 71 63 57 56 54 53 54 48 40 35 29 38 68 93 100 100 99 97 97 100 100 99 100
101 103 101 100 101 101 101 101 101 100 98 95 91 90 88 83 82 84 78 75 77 72 68 72 78 88 96 99 99 97 94 93 95 96 95 94 93 90 87 83 79 77 79 84 87 85 83 87 94 89 74 59 50 51 59 67 73 81 83 79 80 83 83 77 68 60 53 50 52 51 45 37 34 44 63 82 96 101 99 99 100 99 100 100 99
101 101 102 101 100 102 102 99 101 101 99 98 94 92 92 88 86 88 81 75 76 74 70 71 78 91 99 99 98 96 92 89 91 94 96 95 92 90 87 84 82 84 88 89 87 84 82 83 86 81 68 56 51 53 58 66 73 79 80 79 79 79 79 79 78 72 62 55 53 53 50 42 40 57 74 78 88 101 100 99 101 99 100 100 99
98 100 101 100 101 103 101 100 101 101 100 101 99 98 95 87 89 95 89 79 81 80 73 73 82 93 100 100 99 97 92 90 91 92 92 91 88 87 87 88 92 94 93 88 85 85 85 81 75 68 62 58 56 56 58 64 70 72 73 75 79 84 87 85 81 79 73 66 64 65 61 52 53 76 90 83 86 99 101 99 101 100 99 100 99
97 100 101 100 101 101 100 100 100 100 101 100 99 102 100 91 93 100 95 87 88 85 79 82 89 95 98 100 100 97 94 95 95 93 91 89 87 87 90 95 98 96 93 92 91 89 86 79 71 64 61 60 58 57 60 63 63 61 62 69 77 85 91 87 80 82 82 75 71 72 72 69 74 92 100 92 92 99 100 99 100 99 99 100 100
100 100 100 99 100 100 100 100 100 100 100 101 101 102 101 97 97 101 98 92 89 84 83 89 94 96 99 101 99 97 97 100 100 96 91 88 89 92 95 99 100 97 96 94 91 87 81 74 68 64 59 55 54 56 58 58 56 57 63 70 74 78 84 88 87 88 91 86 76 72 75 81 91 100 100 98 99 100 99 100 100 100 100 100 100
101 101 100 100 100 99 100 100 101 101 98 98 101 103 102 98 95 95 96 93 87 82 85 93 97 97 100 101 99 98 100 102 100 97 95 94 95 98 100 102 101 98 98 95 89 86 81 69 61 57 52 49 49 53 56 55 54 60 70 73 71 74 84 92 94 94 96 94 84 78 79 83 91 98 99 99 101 100 99 100 99 100 101 100 100
100 100 99 100 100 100 100 99 99 102 101 98 99 101 101 96 90 90 92 91 87 83 88 97 100 99 100 101 101 100 100 101 101 101 100 99 100 101 101 99 95 95 100 98 87 77 68 59 54 55 56 55 54 55 58 59 59 61 65 65 66 74 82 88 94 99 100 98 92 88 86 86 90 97 99 100 100 100 100 100 99 100 101 100 100
100 100 99 100 99 99 101 101 99 101 101 101 100 100 98 91 85 86 87 88 86 86 93 101 100 100 102 102 101 100 100 101 102 101 100 100 100 99 95 92 92 95 97 92 79 67 60 58 58 58 58 54 51 51 51 50 51 53 53 54 58 68 76 81 91 100 100 99 98 96 93 93 96 100 100 99 100 100 100 100 99 100 100 99 100
99 100 100 100 100 98 99 101 102 101 100 101 101 100 97 91 85 83 84 84 85 89 98 102 100 101 102 101 100 100 100 101 102 101 101 100 99 96 93 92 93 91 85 76 69 63 58 56 52 49 50 52 54 59 60 57 56 54 52 51 53 59 68 77 91 100 100 99 101 100 98 99 100 100 99 99 100 100 100 100 99 100 101 100 100
99 100 100 101 101 101 99 98 100 102 100 100 100 97 95 92 88 86 84 83 87 94 101 101 101 102 101 99 100 100 100 102 102 101 100 100 101 98 92 85 78 72 68 63 57 52 46 44 47 54 66 76 82 84 79 73 70 64 57 54 53 55 64 79 93 101 100 99 100 100 100 100 99 100 100 100 100 100 100 100 99 100 100 99 100
101 100 101 102 101 103 103 100 101 103 101 100 100 97 96 94 92 91 88 88 93 100 101 101 101 102 100 99 100 100 100 101 100 99 99 100 99 91 78 71 67 62 57 52 49 50 50 53 65 82 93 97 99 98 90 81 75 67 60 57 54 55 70 87 98 101 99 100 101 100 100 100 100 100 100 99 100 100 100 100 100 100 100 100 100
102 102 102 101 100 102 103 101 103 104 102 102 102 101 101 100 99 99 97 97 100 101 100 101 102 101 99 100 101 100 99 100 100 100 99 95 89 80 71 66 63 59 56 56 62 72 78 80 87 97 101 99 99 99 90 78 70 64 62 64 61 63 80 96 101 100 100 100 100 99 100 100 99 100 100 100 100 100 100 100 100 100 100 99 99
101 101 102 102 102 102 102 101 103 103 102 103 103 102 102 101 102 103 102 101 100 100 101 102 101 99 100 100 100 99 100 101 100 98 95 87 80 78 78 75 72 72 76 80 87 94 98 98 96 97 99 100 101 96 84 75 73 75 77 77 68 69 86 100 101 100 100 100 100 100 100 100 100 100 100 100 100 100 100 100 100 100 98 94 91
102 101 102 102 102 102 101 102 104 104 103 102 101 101 101 100 101 101 100 100 100 100 101 102 100 100 100 100 100 100 99 100 99 98 95 85 73 70 76 85 91 94 94 96 99 99 99 100 99 99 100 100 100 98 90 85 88 94 94 86 75 78 95 102 100 100 100 99 100 100 99 100 100 100 100 100 100 100 100 100 100 100 96 87 80
103 103 102 102 102 103 104 104 104 103 102 101 100 101 100 100 100 100 100 100 100 100 101 101 99 100 100 99 100 98 97 100 101 96 88 79 71 69 78 90 98 99 98 99 99 99 100 100 99 99 100 100 100 100 98 95 97 101 100 94 89 94 101 101 99 100 101 100 101 100 100 100 100 100 100 100 99 100 100 100 100 100 94 87 83
102 101 100 102 103 102 104 104 103 102 101 101 101 100 100 100 100 100 100 100 99 101 102 100 99 100 100 100 100 100 98 97 94 85 80 79 78 78 85 94 98 99 99 99 98 99 100 100 100 100 100 100 100 100 100 100 100 100 100 99 99 100 101 100 100 99 98 98 99 99 101 101 100 101 100 98 98 101 100 99 100 101 98 95 96
103 102 100 101 102 103 104 104 103 101 100 100 100 100 100 100 100 100 100 100 100 102 102 100 100 100 99 100 102 100 94 88 85 84 85 87 86 86 90 96 99 99 98 97 99 101 101 100 101 100 99 99 100 100 99 100 100 99 99 100 100 100 100 98 97 95 95 97 99 100 102 102 101 101 100 98 99 99 98 98 100 101 101 100 100
101 103 102 100 102 104 104 104 105 102 100 100 100 100 100 100 100 100 100 102 102 101 101 102 101 100 100 102 101 94 87 85 87 86 82 81 85 93 99 100 99 99 99 97 97 99 100 101 101 98 95 96 100 101 99 100 100 97 96 98 100 100 100 99 98 98 100 101 101 100 100 100 100 100 99 99 99 99 99 100 101 100 100 100 99
101 103 103 100 102 105 104 104 105 102 100 100 100 100 100 100 100 100 100 102 103 100 98 101 103 101 100 98 92 83 79 83 88 86 81 80 84 92 98 100 99 100 100 98 97 99 100 101 100 97 93 93 98 101 100 100 98 93 93 99 100 99 100 100 100 100 101 101 101 101 99 100 100 100 99 100 100 100 100 100 99 99 100 100 100
101 102 103 100 101 104 103 103 103 101 101 101 99 100 100 99 100 101 100 101 102 98 95 98 102 98 92 89 85 79 79 84 87 86 88 91 91 94 98 100 100 100 100 100 100 100 100 99 100 100 95 91 95 100 100 99 98 95 97 99 98 98 100 100 99 100 100 100 100 100 100 100 100 100 100 100 100 100 98 97 98 100 100 100 100
101 100 103 101 101 103 103 101 103 103 101 100 99 100 101 100 101 102 99 98 100 98 93 95 98 94 90 89 88 84 85 89 90 90 93 95 94 97 101 101 99 99 100 101 100 100 100 100 100 100 98 94 95 99 100 100 100 99 99 100 98 98 101 100 99 100 100 100 100 100 100 100 100 100 101 100 100 100 99 99 100 100 100 101 102
Wind_Speed
41 42 43 46 49 50 51 53 54 55 56 56 56 56 56 55 54 52 50 48 47 46 46 46 45 44 43 41 39 38 36 36 35 38 41 43 45 49 54 58 62 64 65 65 65 65 65 65 65 64 64 64 63 61 60 59 58 56 55 54 53 50 49 47 46 46 46 46 46 46 46 45 44 43 42 41 41 41 41 41 40 39 39 39 37
39 39 41 43 45 48 51 54 58 60 61 62 62 62 63 62 61 60 59 57 56 54 51 50 49 49 48 47 45 43 41 40 39 38 39 40 41 43 46 50 54 58 62 64 66 66 67 67 67 67 67 66 66 64 62 61 60 59 58 58 56 53 51 51 50 49 49 48 48 48 48 47 46 45 44 45 45 45 44 42 42 41 41 41 40
38 40 42 44 46 48 52 55 58 61 61 62 62 64 65 65 65 65 65 65 64 64 61 59 57 55 53 52 51 49 47 45 44 42 40 40 41 42 43 45 48 51 53 57 62 65 67 68 69 69 69 69 68 67 65 64 63 62 61 60 58 55 55 55 53 51 51 50 50 50 50 50 49 48 47 47 47 46 45 44 44 43 42 42 42
36 39 36 38 47 53 56 59 61 62 63 64 65 66 68 68 69 69 69 70 69 69 69 68 65 63 61 58 57 55 52 50 48 47 46 44 42 42 42 43 45 46 47 49 53 58 62 65 68 70 70 70 70 70 67 66 65 64 63 62 60 58 58 57 55 53 52 52 52 52 52 52 51 51 50 48 47 46 46 45 45 44 43 43 43
36 43 39 41 52 58 61 64 66 68 69 69 69 69 70 69 69 70 70 70 69 69 68 67 66 65 65 64 61 59 56 55 53 51 50 49 46 44 43 42 43 45 46 46 46 49 53 57 62 66 69 70 71 72 70 68 67 66 65 64 62 61 60 59 57 55 54 53 53 53 53 53 52 52 51 49 48 47 46 46 45 44 43 43 43
44 50 51 55 62 64 65 68 69 72 72 71 68 65 64 63 62 62 60 58 60 61 58 56 55 55 60 63 63 60 57 55 54 53 53 52 51 48 45 44 43 44 45 46 46 45 45 48 52 56 62 68 71 72 71 70 69 67 66 65 64 62 61 61 58 56 55 54 54 54 55 54 53 53 52 51 49 47 47 47 46 45 44 44 43
50 54 57 63 67 67 69 71 71 70 69 67 61 55 52 51 50 45 41 40 45 49 46 44 44 45 49 54 56 57 55 52 52 52 53 54 55 54 50 47 45 45 46 46 47 46 45 45 47 48 52 59 65 69 71 71 70 70 69 67 65 63 62 61 59 57 56 55 54 55 56 56 55 55 54 53 51 50 49 48 48 47 46 45 44
53 58 64 68 70 71 71 71 69 66 63 58 49 43 42 41 39 33 29 30 34 37 37 38 39 39 42 45 47 49 49 48 47 49 51 51 54 56 56 53 49 47 47 48 48 47 47 46 46 46 46 49 53 58 64 67 67 69 69 67 65 63 61 61 59 57 55 54 54 54 56 56 56 56 54 53 52 52 52 51 50 49 48 48 46
58 64 67 66 65 67 66 64 60 55 51 44 37 36 36 35 34 32 31 31 31 32 36 39 40 39 41 43 43 42 43 45 44 44 47 48 50 52 55 56 54 50 48 48 50 49 48 47 47 48 46 47 48 49 53 57 59 62 65 64 63 61 60 60 60 58 55 54 54 55 56 56 56 55 54 54 53 54 53 52 51 50 50 50 48
62 65 62 56 55 56 55 53 47 39 36 34 32 33 33 33 33 34 34 32 32 33 37 39 40 41 42 43 42 41 40 41 41 41 43 45 47 48 50 53 54 54 51 49 50 51 51 49 49 49 47 47 49 49 50 51 52 55 58 60 60 59 60 60 59 58 56 55 54 55 55 56 55 55 54 54 53 53 53 52 51 51 51 50 49
61 61 56 52 54 53 50 47 41 33 33 34 32 31 31 31 32 32 33 32 33 36 38 39 39 40 40 40 40 40 39 37 38 40 40 41 44 46 47 48 49 51 51 50 50 52 52 51 50 50 49 48 48 49 49 50 50 50 51 54 56 57 57 58 58 58 57 55 54 54 55 55 55 54 54 53 52 52 51 52 52 52 53 52 50
63 59 54 50 51 50 44 42 38 35 35 33 31 30 29 29 30 30 32 34 35 37 39 39 40 40 39 39 39 38 38 36 36 39 39 39 40 42 44 46 47 47 47 48 49 50 52 52 51 49 49 49 49 49 50 50 50 49 49 49 51 54 55 56 57 58 58 56 54 54 55 55 55 54 54 53 52 51 51 51 52 53 54 55 53
66 57 52 49 47 43 38 36 35 35 36 34 31 29 27 29 30 30 34 37 38 37 37 37 38 38 37 36 36 35 35 34 34 36 37 37 37 38 40 42 44 44 44 44 44 45 48 50 50 49 48 48 49 50 50 51 52 51 51 49 49 50 52 54 56 57 57 57 56 55 55 55 55 55 55 54 53 52 51 51 52 52 54 55 55
66 55 50 46 41 37 35 35 34 35 35 33 32 29 27 29 30 32 37 38 36 35 34 35 35 34 33 33 33 32 32 33 33 33 34 34 35 35 36 38 40 42 41 40 39 39 41 44 46 47 47 47 47 48 49 50 52 52 52 52 51 50 50 50 52 55 57 58 57 57 56 56 55 55 55 55 54 53 52 51 51 52 53 54 55
59 53 47 40 37 35 34 34 32 33 33 32 32 29 27 29 31 36 41 37 33 32 32 33 33 33 33 33 33 32 32 32 32 31 31 32 33 34 35 36 38 38 37 37 36 35 35 37 40 42 44 45 47 47 47 48 50 52 53 53 53 53 52 51 50 51 54 57 58 59 58 57 57 56 55 56 56 54 52 52 52 52 52 53 54
53 50 43 37 36 35 34 34 33 34 32 30 29 29 30 32 34 41 44 35 30 31 32 33 33 33 33 33 32 32 31 31 32 32 31 30 32 33 34 36 37 36 34 35 35 34 32 33 34 36 38 41 44 47 48 47 47 49 52 53 54 54 55 55 54 52 52 53 55 57 58 59 59 59 57 57 56 54 52 53 53 52 52 52 53
50 47 42 37 36 35 35 37 37 35 32 31 30 31 33 35 38 45 44 35 30 30 31 34 33 32 32 31 30 29 31 33 33 33 32 31 32 32 33 35 35 34 33 32 33 33 33 32 32 33 34 36 39 43 46 48 49 49 50 52 54 55 55 56 57 57 56 54 54 55 56 58 61 61 59 58 57 55 53 54 54 53 52 52 52
47 45 43 39 37 36 38 39 37 34 33 35 35 33 34 39 44 45 40 36 35 35 34 35 32 30 30 29 28 28 30 32 33 32 32 32 32 32 33 35 34 34 33 33 32 32 33 33 33 33 33 34 36 38 41 44 48 50 50 51 53 55 56 56 57 58 58 57 56 55 56 58 61 61 60 58 57 56 54 53 54 53 52 52 52
49 48 45 39 37 39 42 40 37 35 35 36 36 36 40 45 45 40 35 37 40 42 41 36 29 28 29 28 28 28 27 29 31 31 31 32 31 31 34 35 34 33 33 33 33 32 33 33 33 33 33 34 35 37 38 39 42 45 48 51 52 54 56 57 58 57 57 57 56 56 56 57 59 59 58 58 58 56 55 54 53 54 53 52 52
50 50 46 42 40 41 41 39 37 36 38 39 40 41 43 44 41 35 33 36 39 41 43 38 31 29 29 28 28 28 26 27 30 31 29 30 31 32 33 34 35 34 33 33 34 33 33 33 33 33 33 34 35 37 37 38 39 41 43 47 49 51 54 57 58 59 58 57 56 55 54 55 57 56 56 57 56 56 55 55 54 54 53 52 52
49 48 45 43 43 41 39 39 38 40 43 42 42 43 44 43 40 37 36 38 39 40 43 42 38 34 30 28 28 28 28 28 30 31 30 30 30 31 31 31 32 32 31 33 33 34 35 34 33 33 33 34 35 36 37 38 39 39 40 43 45 47 49 52 56 59 61 60 58 56 55 54 55 56 56 55 55 56 56 56 55 55 55 54 52
50 48 43 43 44 42 41 42 42 45 46 42 43 46 47 44 42 41 41 41 42 42 43 43 41 36 30 27 28 28 28 29 30 31 31 31 29 28 28 27 28 28 28 30 31 32 34 34 34 33 33 34 34 35 37 38 38 39 40 42 43 45 46 47 50 54 58 61 61 59 58 57 57 57 57 56 55 56 57 57 56 55 55 54 53
46 44 42 42 44 42 43 46 46 47 44 41 45 49 48 46 43 42 41 40 40 38 37 36 35 32 28 26 27 27 27 28 30 31 30 30 28 27 27 26 25 25 26 27 29 30 31 33 33 33 33 33 34 35 36 37 37 38 40 41 43 45 46 47 48 49 52 56 59 58 59 60 60 60 59 58 56 56 57 58 56 55 55 54 53
41 41 42 43 44 43 46 49 48 48 47 47 49 49 48 46 43 41 39 39 39 38 38 38 36 35 32 29 29 28 27 27 29 31 31 30 29 29 29 28 28 27 27 27 28 28 29 31 32 33 33 34 35 36 37 38 38 39 41 42 43 45 47 48 48 49 49 51 53 54 56 57 59 60 61 60 58 56 56 58 57 55 54 53 52
40 40 42 45 47 49 51 53 49 47 51 53 51 50 50 47 43 43 43 42 42 42 42 42 40 39 38 35 33 32 31 30 31 35 37 35 34 33 31 30 30 30 29 29 28 28 28 29 30 32 33 34 35 36 39 40 41 42 43 44 44 46 47 48 49 49 50 50 51 52 53 54 54 56 59 61 60 57 56 57 57 56 54 52 51
44 43 44 46 52 55 55 55 54 50 49 51 51 52 53 51 48 48 47 44 43 43 43 42 40 40 41 41 39 37 36 36 37 40 42 41 39 37 35 33 32 32 31 31 30 29 29 29 30 32 34 35 36 36 38 40 42 43 45 45 45 46 47 48 49 50 50 50 50 51 52 53 52 52 54 57 59 58 56 57 57 55 52 49 48
48 45 45 50 56 57 54 54 57 55 51 50 52 54 55 54 52 50 49 47 44 43 43 42 40 38 38 39 40 40 41 42 42 43 44 44 42 40 38 36 34 33 32 32 32 31 30 31 32 33 34 36 36 36 36 38 40 41 43 44 44 45 46 47 48 49 49 50 50 50 51 52 53 51 50 52 56 57 57 57 55 51 49 46 44
49 47 49 55 59 58 55 56 58 58 55 53 54 55 55 54 53 51 51 51 49 46 44 42 40 37 35 33 34 37 40 43 44 44 44 43 43 42 41 40 38 35 34 34 33 32 32 33 33 33 34 35 35 35 35 35 35 36 37 38 39 41 44 44 45 46 47 48 48 49 50 50 52 52 49 48 52 55 55 55 52 48 46 45 42
51 52 55 59 60 58 57 58 60 59 57 57 57 56 54 53 53 52 51 52 52 51 47 44 43 40 36 33 31 31 34 37 40 43 44 44 44 45 46 45 43 39 36 35 33 33 33 32 33 33 33 33 33 33 32 31 31 32 33 34 35 37 40 41 42 43 44 45 46 47 49 48 49 52 52 48 48 52 53 51 48 46 45 44 42
54 58 61 61 60 59 57 58 60 59 59 61 61 58 55 52 51 51 50 50 51 51 48 47 46 43 40 36 34 32 31 32 35 38 42 44 45 46 48 47 45 42 38 35 34 33 32 31 32 32 32 32 32 31 30 29 29 31 32 33 33 34 35 37 39 40 42 44 45 46 48 47 47 51 54 50 46 47 50 49 46 45 45 44 44
59 62 63 62 60 59 58 58 59 60 62 65 64 62 60 55 50 50 50 48 49 50 49 48 47 44 42 39 36 35 33 30 30 32 34 37 39 41 42 42 42 40 36 32 31 32 31 31 31 31 31 31 31 30 29 29 29 30 32 34 34 33 34 35 37 38 39 41 44 45 46 48 48 50 53 52 46 44 46 47 46 45 45 44 44
64 63 62 61 60 60 60 59 60 62 65 67 68 66 63 59 53 50 48 45 45 47 48 47 45 42 41 39 37 35 33 30 27 27 27 28 29 31 33 33 32 31 28 27 28 29 30 30 31 31 31 31 30 30 29 29 29 30 32 33 34 35 36 36 37 37 38 40 42 43 44 47 49 49 49 50 48 43 44 46 45 44 43 43 42
66 64 61 59 57 58 61 62 63 65 67 70 71 69 67 61 53 49 48 44 42 43 44 44 42 39 39 38 36 34 32 28 25 24 23 22 23 23 23 22 21 21 21 23 25 26 28 28 29 29 30 29 28 29 29 29 29 29 31 32 33 35 37 38 38 38 39 40 41 42 43 45 48 47 46 47 47 43 42 43 44 43 42 42 42
65 63 61 59 58 59 61 63 64 67 69 72 72 70 68 62 52 46 44 42 39 39 39 40 38 36 36 36 33 30 27 24 23 21 20 18 18 16 15 15 16 16 18 20 22 25 26 27 27 27 28 28 28 28 29 29 28 29 30 31 32 35 37 39 40 40 39 40 41 41 41 43 46 46 44 45 45 43 41 41 43 44 43 42 42
64 62 60 60 60 61 62 64 66 69 71 72 71 68 63 58 49 43 39 37 36 35 36 36 34 33 34 32 29 25 21 19 19 18 16 14 12 10 10 11 12 13 14 18 21 23 24 25 25 25 27 28 28 28 28 28 28 29 29 30 32 34 36 38 41 41 39 38 40 40 40 41 43 43 43 44 43 42 40 40 41 43 43 42 41
61 61 59 59 60 62 64 66 68 72 73 70 66 62 57 52 47 42 38 35 34 33 34 33 30 30 31 27 22 19 15 15 16 14 10 8 7 6 7 10 11 11 13 17 20 21 23 24 25 26 27 27 27 27 27 27 28 29 29 31 32 34 36 39 41 41 38 36 37 38 39 40 40 42 43 42 40 39 38 38 39 41 42 42 40
59 59 58 59 62 63 66 68 70 72 72 67 61 57 53 49 46 44 40 37 34 33 32 29 27 28 25 21 16 13 12 12 12 8 4 3 4 6 8 10 11 11 13 17 20 22 23 24 24 24 24 25 26 27 27 28 30 31 31 33 35 36 38 40 39 38 36 34 35 36 37 37 39 41 42 39 36 36 36 36 38 40 41 42 40
58 58 60 63 66 68 70 74 73 69 65 61 56 52 49 48 47 44 42 38 35 32 29 25 24 23 19 15 11 9 9 8 4 3 4 3 4 6 8 10 11 12 15 18 20 21 21 21 22 23 25 27 29 30 30 31 33 34 35 36 37 38 39 39 37 36 34 31 32 34 35 36 37 37 36 34 33 34 35 35 37 39 41 41 39
56 56 60 66 72 75 74 73 69 64 59 54 50 49 49 49 47 45 41 37 34 30 25 20 19 16 13 9 5 4 5 1 4 6 4 2 6 8 8 9 10 12 15 16 17 18 19 20 23 25 27 30 32 33 33 33 34 35 37 37 38 39 38 37 35 33 30 26 27 30 32 32 31 30 30 31 32 33 33 34 36 37 39 39 37
57 58 63 68 73 76 73 67 60 56 52 48 47 48 49 48 46 42 38 35 31 25 19 15 13 11 7 3 1 2 2 3 6 5 2 4 7 7 7 8 9 10 12 13 15 17 20 22 25 27 28 31 34 35 35 33 32 33 33 34 38 39 36 34 33 29 24 21 22 25 27 27 26 26 28 29 30 31 31 32 33 34 36 35 34
61 62 64 63 63 65 64 59 53 50 48 47 47 47 47 45 42 37 33 30 25 18 12 9 8 5 2 1 2 3 2 4 4 3 4 5 7 7 6 7 8 10 13 14 16 19 21 23 25 26 28 30 32 32 32 30 29 29 29 31 36 36 32 29 28 22 16 15 18 21 22 22 22 23 25 27 29 29 28 29 30 30 31 30 30
64 63 62 60 59 58 57 54 49 47 47 46 46 45 42 40 36 32 28 23 16 9 5 4 3 2 3 4 4 4 3 3 4 5 5 5 5 6 7 8 10 13 15 17 19 21 21 23 24 27 30 32 29 26 26 25 25 26 27 29 32 30 26 25 22 16 12 12 15 17 18 19 19 21 22 24 26 26 26 27 27 27 28 29 30
69 66 64 64 62 58 55 51 47 44 44 43 41 40 37 34 31 26 21 14 7 2 1 2 4 5 5 6 6 5 4 4 5 5 4 4 5 5 8 10 13 15 17 18 18 18 18 21 25 28 31 31 26 22 22 22 22 23 25 27 27 24 23 22 18 14 13 13 14 16 18 18 19 19 20 22 25 25 24 24 24 25 27 28 30
71 68 66 65 62 57 53 49 45 41 40 38 37 36 34 30 26 22 15 7 1 2 3 5 6 7 7 8 8 7 6 5 6 5 4 5 6 7 9 11 12 15 17 17 15 15 18 22 25 28 29 26 20 17 19 20 21 21 22 23 23 21 21 19 17 15 15 15 15 16 17 18 18 17 19 22 24 24 22 23 25 25 26 27 29
73 69 68 65 61 55 51 47 43 39 36 35 33 32 30 26 22 17 9 2 3 5 6 7 8 8 8 8 9 9 8 6 5 4 5 7 8 9 10 11 12 15 17 16 15 17 20 22 24 27 28 25 20 15 15 17 19 19 20 21 20 19 18 16 15 16 16 16 17 17 17 18 17 17 20 24 24 22 23 25 25 24 25 27 30
75 71 68 65 59 53 47 43 40 37 34 33 30 28 26 23 19 13 6 4 5 6 7 8 8 8 8 8 8 8 7 6 5 5 6 8 9 10 11 11 13 15 17 17 17 18 20 21 24 26 26 25 23 18 12 11 14 16 18 18 17 15 14 14 15 17 18 18 18 17 17 17 17 20 23 24 22 23 25 25 24 25 28 30 30
76 72 69 64 58 51 45 42 39 36 34 31 28 26 24 21 16 11 6 5 6 7 7 8 8 8 8 8 8 7 6 5 4 5 6 8 9 10 11 12 13 16 18 18 17 19 21 22 23 24 23 24 23 18 10 7 8 11 14 14 12 11 12 14 17 17 17 17 17 16 17 18 20 23 24 23 23 25 25 25 26 29 29 27 26
76 73 68 64 58 50 44 41 38 36 33 29 26 25 22 19 15 11 6 5 5 6 7 7 7 7 7 7 7 6 6 4 4 5 6 6 7 7 8 11 15 18 19 18 17 19 21 22 24 23 21 20 19 15 7 3 6 7 8 8 7 8 9 12 13 12 11 12 14 16 18 20 22 23 24 23 23 24 24 25 26 26 24 23 23
77 73 68 63 57 49 43 39 36 34 32 28 25 23 21 18 15 11 7 5 4 5 7 7 6 6 6 6 6 6 5 3 4 6 5 5 6 6 7 12 15 17 18 19 19 21 23 24 24 23 18 14 13 10 3 4 7 7 6 6 6 6 7 7 8 7 6 7 10 13 15 17 19 20 20 20 21 21 22 23 23 22 22 22 21
75 73 68 63 56 49 41 37 34 32 30 27 25 23 21 18 15 11 7 5 3 3 6 6 5 5 5 4 3 3 2 2 5 4 2 5 7 8 11 14 14 14 17 19 21 24 26 25 23 19 12 8 5 4 2 6 8 8 9 9 9 8 7 6 6 6 6 6 7 9 11 12 14 15 15 17 18 19 19 20 20 20 21 19 17
73 72 68 62 56 49 42 36 34 31 29 27 25 22 20 17 14 12 9 6 3 2 5 5 4 4 4 4 2 1 1 3 4 4 5 7 5 4 8 13 14 14 16 19 22 25 26 23 19 13 6 4 2 1 4 7 8 8 8 9 10 11 9 8 9 9 8 8 9 8 9 10 11 12 13 15 17 17 18 18 19 19 18 16 15
Wind_Direction
297 299 301 302 302 302 302 303 302 302 301 300 299 297 296 295 294 293 291 288 286 284 283 283 282 281 280 279 278 277 277 277 274 269 263 258 254 250 248 247 246 245 244 244 243 243 242 242 241 239 238 238 238 237 236 237 239 241 243 244 245 245 247 249 251 252 253 255 256 258 260 261 261 262 264 266 267 267 267 268 269 269 268 266 265
295 296 297 298 297 297 297 298 299 299 299 300 300 299 297 296 296 296 294 293 292 289 287 286 285 284 283 282 281 279 278 278 278 277 273 268 264 259 253 250 249 247 245 244 243 243 243 243 243 241 239 238 239 238 236 236 237 238 240 242 244 245 247 249 250 251 253 255 257 258 260 261 261 261 262 265 266 267 269 270 270 268 267 266 264
293 293 294 295 294 295 297 297 297 297 297 298 300 300 299 298 298 298 297 297 295 293 292 290 288 287 286 285 284 282 281 280 279 279 278 275 271 267 263 258 253 251 249 247 244 243 242 242 242 242 240 239 238 238 236 235 236 237 238 240 243 245 247 248 250 252 253 254 255 256 259 261 262 262 263 264 267 269 270 270 269 267 266 264 263
298 301 304 303 304 307 308 305 303 301 300 300 301 302 302 302 302 301 301 300 299 298 297 295 293 290 288 287 286 284 282 281 280 279 280 278 275 272 270 267 262 258 255 252 249 246 244 242 240 241 240 238 237 237 236 235 235 236 237 239 241 244 246 248 250 253 254 253 254 257 259 261 262 264 264 264 266 267 268 268 268 267 266 264 262
316 318 320 319 321 322 318 315 312 310 310 309 308 307 307 306 306 305 304 303 302 302 301 299 297 294 291 288 287 285 283 281 280 278 278 278 277 276 273 271 269 266 262 258 255 252 250 247 242 239 237 237 237 236 235 234 234 235 237 238 240 243 246 249 251 253 254 255 255 257 258 261 264 265 265 265 264 265 267 268 268 267 266 265 264
322 322 321 322 325 325 321 318 317 316 316 315 313 312 311 310 309 308 306 303 302 303 301 299 298 295 294 292 289 286 284 281 280 278 276 275 274 275 274 273 271 270 267 264 260 256 254 252 248 243 238 235 235 236 235 234 234 235 236 238 239 242 244 247 250 252 253 255 255 256 258 261 262 262 264 265 266 266 267 267 268 267 266 266 265
324 324 323 324 326 324 321 319 318 317 316 314 313 313 312 312 312 309 305 302 300 300 299 298 297 295 294 294 293 290 286 281 279 277 275 273 272 271 270 272 271 270 269 267 265 261 258 254 251 248 243 237 235 234 234 234 233 234 235 236 238 240 242 245 249 251 252 254 255 256 258 260 261 261 263 266 268 269 269 269 268 267 266 265 264
322 323 323 324 324 322 320 318 316 315 313 312 312 311 310 310 309 304 299 298 299 300 300 300 301 298 297 297 298 296 291 285 279 274 272 271 270 269 267 267 268 268 268 268 267 265 263 259 256 253 249 243 239 236 234 232 231 232 233 234 235 237 241 244 247 250 252 255 255 256 258 261 262 263 264 266 268 270 271 270 268 267 267 266 264
322 324 326 325 323 322 321 319 317 315 312 310 309 310 309 307 303 297 294 295 298 300 302 303 303 301 300 300 299 297 295 292 286 277 272 269 266 266 266 265 264 264 265 265 266 265 264 263 262 261 257 251 248 245 240 235 232 231 231 232 234 237 241 243 246 249 252 254 254 256 258 261 263 263 263 264 266 268 271 271 270 270 270 269 266
328 329 327 324 322 321 321 321 319 316 314 312 310 309 308 305 301 297 295 295 297 299 302 303 301 301 301 300 299 296 294 293 291 284 278 273 268 263 262 262 262 262 262 262 263 264 263 262 261 262 263 259 255 252 248 243 239 235 234 234 235 238 240 242 244 248 251 253 253 255 258 260 263 264 263 264 266 268 271 272 272 272 272 271 269
332 329 326 323 321 320 319 319 318 313 313 314 313 310 306 303 299 296 295 295 296 298 301 300 299 302 302 300 298 297 294 292 290 289 284 279 274 269 265 262 260 260 261 261 260 260 261 261 260 260 261 261 260 258 254 250 247 244 241 240 239 239 240 242 244 246 249 252 253 255 258 261 263 264 265 265 266 267 269 271 271 272 272 272 269
332 330 326 323 322 321 319 319 317 313 313 315 315 310 305 301 297 295 294 295 298 298 298 297 298 301 302 300 298 296 296 293 288 288 287 283 280 275 271 267 264 260 259 260 260 259 258 259 259 258 258 259 260 260 258 255 253 250 247 245 244 242 242 242 243 244 247 250 253 255 257 260 262 263 264 264 264 265 266 267 269 270 271 271 269
330 330 326 323 321 318 317 317 315 312 313 314 313 307 302 298 295 298 300 300 300 299 297 297 298 300 300 299 298 296 298 296 291 287 286 286 285 280 276 272 269 265 261 259 259 259 258 258 258 257 256 257 258 258 258 257 256 254 251 250 248 246 245 243 243 244 245 248 251 253 255 257 259 261 262 262 262 262 262 263 265 267 269 271 270
327 328 325 322 320 317 317 317 314 312 312 313 311 305 301 298 295 302 308 305 300 298 297 297 297 298 298 297 295 294 294 293 292 290 288 287 286 283 279 275 271 269 266 262 260 261 261 259 259 257 255 254 255 256 257 257 256 255 254 253 252 250 248 246 244 244 245 246 248 250 252 253 255 257 259 260 260 259 260 262 264 266 268 270 270
328 327 323 320 319 318 319 318 317 315 314 312 309 304 305 301 297 307 313 307 301 300 298 296 295 294 294 294 292 291 289 288 287 288 288 286 285 284 282 278 274 271 268 266 263 262 262 261 261 259 257 253 252 252 254 254 254 254 254 254 254 253 251 249 246 244 245 245 247 248 250 251 252 254 255 256 257 258 259 261 262 264 266 267 268
327 324 322 320 320 321 321 320 320 319 315 312 309 306 307 301 296 308 314 308 300 300 302 301 298 294 293 293 292 290 287 285 283 283 284 283 283 284 283 281 279 275 271 267 266 264 262 261 260 259 258 256 252 250 250 251 251 252 252 252 253 253 253 251 249 246 244 244 246 247 248 250 251 252 252 253 255 256 258 259 260 262 263 266 267
326 324 322 320 321 322 323 324 323 320 315 313 309 307 306 298 298 308 312 306 299 298 304 305 300 294 292 291 292 290 287 286 284 282 281 281 282 282 283 283 283 279 275 269 267 267 265 264 262 260 259 258 255 253 250 249 249 250 250 251 251 252 252 252 251 249 247 244 244 245 246 247 249 250 250 251 253 255 256 257 259 261 262 264 265
324 324 322 322 323 323 325 326 322 316 314 312 308 305 301 297 303 310 309 304 300 299 304 306 300 294 292 290 289 287 287 289 287 282 280 280 280 282 284 285 285 283 278 272 269 269 269 268 266 264 262 260 258 256 253 251 249 249 249 249 250 249 249 250 250 249 248 246 245 244 245 246 247 248 249 250 252 253 254 256 258 261 262 263 264
324 324 324 324 323 323 324 323 319 317 318 315 307 303 302 302 308 311 306 304 303 302 306 308 303 296 291 288 286 283 285 290 289 285 281 279 278 280 283 285 286 285 281 276 272 269 268 268 266 265 263 260 259 257 255 254 252 250 250 249 249 248 247 247 248 248 247 246 246 245 245 245 246 248 249 249 250 252 253 255 257 260 262 263 263
324 324 324 324 324 324 323 320 320 320 319 314 307 304 305 309 314 312 306 305 305 305 308 310 309 304 295 288 284 281 281 283 284 284 282 280 280 280 281 283 285 285 281 278 275 272 270 269 267 265 263 260 258 257 256 256 254 253 252 251 251 250 249 246 246 246 246 246 246 246 246 246 247 248 248 249 250 251 252 254 255 258 261 262 262
324 323 323 323 324 325 325 323 320 317 317 315 310 307 307 310 312 309 304 303 304 305 307 308 310 309 301 290 285 281 279 278 277 278 278 279 281 282 282 282 283 284 282 279 277 276 275 273 270 267 264 261 258 256 255 255 255 255 255 254 254 254 254 251 247 246 246 246 246 246 247 248 248 248 247 248 249 249 250 252 253 256 259 260 260
325 324 323 322 323 324 325 324 318 316 320 321 316 313 312 311 310 307 305 304 304 306 308 309 310 309 302 289 283 280 279 279 276 274 274 275 277 279 279 280 281 281 281 279 279 278 277 276 274 270 267 264 262 259 256 255 254 255 256 257 257 257 258 257 254 251 247 246 246 246 247 248 249 249 248 248 249 249 249 250 251 253 256 258 258
324 323 323 322 322 323 322 321 318 319 322 322 317 315 315 315 313 310 308 305 305 307 307 308 305 300 292 282 278 275 273 277 276 272 271 271 271 272 272 273 274 275 275 276 277 277 277 277 275 273 271 268 266 263 261 259 257 256 257 258 259 259 259 259 258 257 254 249 247 246 246 247 248 249 249 248 248 249 249 249 250 251 254 256 255
322 322 322 323 323 321 320 321 322 323 324 324 322 320 320 319 316 312 309 304 301 300 300 299 295 289 282 275 271 267 263 267 270 266 263 263 265 266 266 267 267 268 269 271 272 273 275 276 275 275 275 273 271 269 266 264 262 261 261 260 261 261 260 260 259 258 258 256 252 250 247 245 246 248 248 248 247 248 248 248 249 250 251 253 253
322 320 320 323 323 322 323 325 328 326 324 323 323 322 321 320 316 311 309 305 300 298 297 297 293 287 282 276 270 265 259 257 259 259 257 258 261 262 262 263 263 264 265 265 266 268 270 272 274 276 278 276 274 273 272 270 269 268 266 265 264 263 262 262 260 258 258 257 257 255 251 247 246 246 246 246 246 246 247 247 247 248 249 249 250
325 321 320 321 323 324 326 327 328 328 323 319 320 323 322 319 316 313 311 308 304 303 303 302 299 294 289 284 278 271 263 257 257 257 257 258 260 261 261 262 263 264 264 263 263 265 266 268 270 275 277 275 272 270 270 271 270 270 269 268 266 265 263 262 260 258 256 255 255 255 254 250 247 247 247 245 244 243 244 245 245 246 247 247 247
325 321 320 320 322 325 327 325 325 325 323 319 320 323 322 319 318 315 313 311 308 308 309 308 307 304 299 293 285 276 269 263 262 261 261 261 262 262 262 263 265 266 267 267 265 264 264 265 267 271 273 273 271 269 269 269 270 271 271 270 267 265 263 261 259 257 254 253 252 252 253 252 249 248 249 247 243 242 242 242 242 243 244 244 244
324 323 322 320 322 326 327 325 323 322 321 321 322 323 322 320 319 316 315 314 312 311 312 313 314 314 310 304 294 284 276 270 266 265 264 264 263 264 265 267 268 268 269 270 268 266 265 266 268 269 270 271 272 271 271 272 273 273 272 270 267 266 265 263 260 257 253 252 251 249 249 251 249 248 249 248 244 242 240 239 238 239 239 240 240
325 324 323 323 324 325 325 323 321 320 320 322 323 323 322 319 318 316 314 314 313 312 314 317 320 320 316 312 308 299 288 279 273 268 265 264 264 265 267 269 270 269 270 270 268 267 267 267 270 271 270 270 271 270 271 271 271 272 271 270 268 267 265 264 261 258 255 252 251 249 247 248 247 245 247 250 246 241 240 237 235 236 236 235 236
324 322 323 325 324 324 323 320 318 319 320 321 322 322 320 317 315 314 311 311 311 311 313 316 318 319 317 314 313 309 301 291 281 273 268 266 266 267 268 270 271 270 270 268 265 265 267 267 269 271 270 270 271 270 270 270 271 273 274 273 272 270 268 265 262 260 257 253 251 250 247 245 244 243 245 248 248 242 239 236 234 234 234 234 234
323 323 324 326 325 323 321 318 318 319 321 321 322 321 320 317 315 313 310 309 308 307 309 311 314 316 317 315 314 311 307 299 290 282 275 271 268 267 268 269 270 270 269 264 259 262 265 265 266 269 269 268 268 268 267 269 272 276 276 276 275 274 272 269 266 264 260 256 253 250 247 243 242 242 242 245 249 245 239 237 235 234 235 234 234
326 327 326 324 323 321 318 318 319 320 320 320 320 320 319 317 316 314 310 307 306 304 304 307 311 315 316 315 314 311 307 303 296 289 281 275 270 267 265 266 267 266 263 255 253 258 262 263 265 267 266 264 263 263 263 266 271 275 276 276 275 275 274 271 269 267 263 260 255 251 249 244 242 243 242 242 247 246 240 238 237 236 237 236 235
329 328 326 324 321 318 316 318 319 319 318 317 317 318 317 316 317 315 310 307 306 302 301 304 308 313 314 313 311 309 305 302 297 290 283 277 272 267 263 261 258 254 249 247 250 255 259 263 265 265 264 263 262 261 262 265 270 273 274 274 273 274 275 273 272 269 265 261 256 253 251 246 243 244 242 239 244 245 240 238 238 237 237 237 235
329 326 324 322 319 317 316 317 317 316 315 314 314 315 315 315 317 314 308 307 307 303 302 304 308 312 313 312 309 306 301 297 292 287 283 279 273 266 257 248 242 240 242 247 252 256 261 265 266 265 265 264 263 263 265 269 273 274 273 273 271 270 272 274 274 273 269 261 254 251 250 247 245 244 240 237 240 243 239 236 237 237 236 236 235
327 325 323 320 316 315 315 315 314 312 311 311 313 314 314 315 317 314 308 306 306 304 304 306 309 313 314 311 307 303 298 292 286 283 281 279 276 269 253 238 233 238 248 256 260 263 267 268 268 268 267 267 267 269 271 273 274 275 275 274 272 269 270 274 276 276 272 262 253 249 247 247 246 243 238 236 239 240 237 236 237 237 236 236 236
324 323 321 316 314 313 313 312 311 310 311 313 315 315 315 316 317 315 311 307 305 304 305 308 312 315 315 310 305 301 297 289 284 281 277 275 270 261 243 231 233 247 261 267 267 269 272 273 274 275 274 274 275 275 275 274 273 274 275 274 273 271 272 275 277 277 273 261 251 247 244 244 244 241 236 234 235 235 235 235 236 236 236 237 237
323 321 317 314 313 312 311 310 309 309 310 313 315 314 314 315 315 314 312 308 305 305 308 312 316 317 314 308 302 300 297 292 288 277 251 229 233 236 236 237 246 259 267 270 270 272 275 278 280 281 281 282 281 279 277 275 273 272 272 272 271 270 271 276 278 277 273 262 251 244 242 242 241 237 232 230 229 230 230 231 233 234 234 235 236
324 321 317 314 312 310 309 310 311 311 311 312 313 313 312 313 313 311 309 306 304 306 310 315 318 315 310 304 300 302 306 301 281 182 152 178 244 256 255 254 261 268 271 274 277 279 280 281 282 283 286 285 283 280 277 274 273 273 271 270 270 269 272 276 277 277 275 264 248 240 239 237 233 228 226 226 226 226 226 228 231 231 231 232 234
325 319 315 312 310 310 311 312 313 313 314 314 313 311 311 313 313 310 307 302 301 306 312 318 317 311 305 300 297 314 325 310 150 143 149 236 276 276 270 266 269 276 279 280 281 280 279 281 284 286 286 285 282 280 277 273 270 269 270 270 270 269 272 276 277 279 277 262 243 236 234 229 223 222 224 225 224 223 224 228 231 231 230 231 233
325 319 315 311 309 310 313 316 318 317 316 316 313 311 312 314 314 311 305 300 300 306 313 317 313 305 301 295 290 23 35 132 141 144 185 264 281 277 272 278 283 287 288 287 286 286 286 287 288 289 290 290 287 281 276 270 266 265 267 267 266 267 271 275 277 280 277 260 242 232 226 221 221 224 224 223 223 223 224 228 231 232 232 232 233
328 324 321 317 314 314 317 322 324 322 320 319 317 316 317 317 316 312 305 300 303 308 313 313 304 292 268 189 140 98 103 150 162 196 234 263 278 278 284 298 301 300 299 297 298 297 294 292 292 294 299 300 293 280 271 265 262 263 262 260 262 266 270 274 276 277 274 258 241 230 225 224 227 226 221 220 223 223 224 228 231 233 233 233 232
334 333 332 330 328 325 324 326 328 326 325 324 322 322 322 321 319 314 307 304 305 307 310 300 264 200 159 160 146 110 108 162 202 236 247 260 278 292 309 315 312 310 308 305 304 302 299 298 299 301 306 307 297 277 265 260 257 256 255 256 261 266 269 273 273 268 262 254 241 233 231 230 230 226 220 221 225 225 226 228 230 229 230 229 228
340 340 339 336 333 331 329 330 331 329 328 328 328 328 328 325 321 316 311 308 303 294 277 210 182 160 150 157 149 123 125 185 233 256 262 262 272 298 317 317 316 315 313 311 310 310 309 308 307 306 311 313 299 273 259 255 252 250 251 255 259 261 265 269 265 253 251 253 243 236 235 231 227 222 218 221 225 225 224 224 224 224 224 223 224
343 342 341 340 337 335 335 335 336 335 333 333 333 331 331 329 326 322 319 313 279 149 158 168 163 154 155 163 165 161 171 208 244 263 272 273 281 302 315 316 319 321 320 319 319 317 315 314 313 315 322 325 311 278 257 251 249 249 249 251 254 256 260 261 250 241 248 252 244 237 232 228 225 220 216 220 223 221 218 217 217 217 216 217 220
346 344 343 343 341 339 339 339 340 340 338 337 337 335 336 338 337 334 336 5 123 136 154 161 157 154 159 170 186 195 203 216 233 249 273 290 302 312 313 315 322 326 324 320 315 313 316 320 324 327 332 338 332 306 270 252 248 247 243 242 247 251 252 246 236 237 245 246 239 233 227 224 222 215 215 220 220 213 209 210 210 208 208 211 215
346 346 346 345 344 342 342 343 343 343 343 343 345 346 347 349 350 351 6 69 112 136 155 159 156 156 160 171 193 209 215 219 228 255 287 301 307 308 309 315 325 329 327 324 323 325 328 330 332 332 333 336 336 329 302 266 251 244 240 238 239 239 233 228 228 234 238 237 234 230 225 222 215 209 214 219 214 203 202 202 200 200 204 208 211
346 347 347 347 346 345 345 347 348 349 350 351 354 356 358 359 1 6 26 70 108 139 155 156 154 157 165 179 197 210 217 220 231 261 284 297 307 313 318 326 334 335 331 331 336 337 334 331 331 332 329 329 334 337 320 274 240 232 232 229 222 217 215 220 227 232 233 232 228 221 217 213 206 205 209 209 200 197 197 196 195 199 202 204 205
346 347 347 348 348 348 348 350 352 353 356 358 1 5 9 10 10 14 33 66 105 145 161 161 157 157 168 187 200 207 211 220 252 276 284 297 315 326 335 342 344 339 335 336 338 335 331 329 329 329 324 323 334 345 335 231 191 199 210 202 192 199 209 216 221 224 225 222 214 206 204 204 203 204 204 200 194 193 192 192 194 196 196 197 200
344 346 348 349 349 350 351 353 355 356 360 4 8 13 15 16 16 20 31 54 97 152 168 166 162 167 180 192 197 197 199 226 286 291 298 331 341 347 356 353 348 343 337 334 332 330 330 328 325 322 317 316 331 349 6 160 161 164 161 143 142 167 189 200 204 203 202 205 205 204 201 198 199 200 198 193 188 186 186 188 189 188 188 192 197
344 345 347 349 350 351 353 355 358 0 4 8 13 17 18 19 20 21 24 42 78 163 177 169 162 165 169 171 169 173 189 289 304 298 351 12 355 350 357 357 354 349 338 330 328 332 332 327 322 317 309 300 320 354 84 147 153 148 138 133 139 148 151 150 153 156 153 155 176 194 195 189 186 184 180 178 178 180 184 185 184 185 188 193 196
343 344 346 348 349 349 352 356 360 3 6 9 13 17 19 20 21 19 19 28 39 188 185 168 152 139 132 133 132 133 279 313 324 340 11 13 2 355 359 357 355 351 341 335 337 339 335 327 321 316 295 230 199 123 137 149 151 148 144 145 151 154 151 141 131 124 122 129 140 156 166 167 165 161 162 168 176 180 183 183 184 187 190 192 196